This demonstration page uses our WeatherBlox Daily Observations layout. Learn more.

Left ArrowRight Arrow

Hourly Observations for August 18, 2020

Temp ( °F °C ) Dew Point ( °F °C ) Humidity (%) Winds ( mph kmh ) Pressure ( in mb ) Visibility ( mi km ) Precip ( " mm )
12:53 am 00:53 Clear 66 18.9 64 17.8 93 93 N N/A 29.98 1015 10 16.0934 N/A
1:53 am 01:53 Mostly Clear 65 18.3 64 17.8 97 97 N N/A 29.97 1015 10 16.0934 N/A
2:53 am 02:53 Cloudy 68 20 65 18.3 90 90 N N/A 29.96 1014 10 16.0934 N/A
3:53 am 03:53 Cloudy 69 20.6 65 18.3 87 87 NNW 7 11 29.95 1014 10 16.0934 0.001 0.001
4:53 am 04:53 Mostly Clear 66 18.9 64 17.8 93 93 N N/A 29.95 1014 10 16.0934 0.001 0.001
5:53 am 05:53 Mostly Cloudy 65 18.3 63 17.2 93 93 N N/A 29.94 1014 10 16.0934 N/A
6:53 am 06:53 Mostly Cloudy 68 20 64 17.8 87 87 NNE 3 6 29.97 1015 10 16.0934 N/A
7:53 am 07:53 Mostly Cloudy 67 19.4 62 16.7 84 84 NNE 5 7 29.98 1015 10 16.0934 N/A
8:53 am 08:53 Mostly Sunny 68 20 60 15.6 76 76 NNE 9 15 29.99 1016 10 16.0934 N/A
9:53 am 09:53 Partly Cloudy with Light Rain 67 19.4 61 16.1 81 81 NE 3 6 30 1016 10 16.0934 0.001 0.001
10:53 am 10:53 Cloudy with Light Rain 65 18.3 61 16.1 87 87 E 5 7 30.01 1016 7 11.26538 0.03 0.762
11:53 am 11:53 Cloudy with Heavy Rain 64 17.8 61 16.1 90 90 ENE 6 9 30.01 1016 3 4.82802 0.11 2.794
12:01 pm 12:01 Cloudy with Heavy Rain 64 17.8 62 16.7 93 93 E 6 9 30.01 1016 2.5 4.02335 0.04 1.016
12:09 pm 12:09 Cloudy with Heavy Rain 64 17.8 64 17.8 100 100 N N/A 30.01 1016 1.5 2.41401 0.08 2.032
12:20 pm 12:20 Cloudy with Rain 64 17.8 64 17.8 100 100 N N/A 30.01 1016 2 3.21868 0.11 2.794
12:28 pm 12:28 Cloudy with Light Rain 64 18 N/A N/A N N/A 30.01 1016 7 11.26538 0.11 2.794
12:53 pm 12:53 Cloudy with Light Rain 64 18 N/A N/A N N/A 30.01 1016 10 16.0934 0.11 2.794
1:41 pm 13:41 Cloudy with Thunderstorms 64 18 N/A N/A NNE 3 6 29.99 1016 6 9.65604 0.04 1.016
1:53 pm 13:53 Cloudy with Rain 65 18.3 63 17.2 93 93 N N/A 29.99 1016 4 6.43736 0.06 1.524
2:05 pm 14:05 Cloudy with Light Thunderstorms 65 18.3 63 17.2 93 93 N N/A 29.99 1016 6 9.65604 0.02 0.508
2:20 pm 14:20 Cloudy with Nearby Thunderstorms 65 18.3 62 16.7 90 90 N N/A 29.99 1016 8 12.87472 0.03 0.762
2:37 pm 14:37 Cloudy with Light Rain 65 18.3 63 17.2 93 93 N N/A 29.99 1016 9 14.48406 0.03 0.762
2:53 pm 14:53 Cloudy with Light Rain 65 18.3 64 17.8 97 97 N N/A 29.98 1015 4 6.43736 0.04 1.016
3:29 pm 15:29 Cloudy 65 18.3 63 17.2 93 93 N N/A 29.99 1016 7 11.26538 0.001 0.001
3:53 pm 15:53 Cloudy 67 19.4 64 17.8 91 91 NNW 3 6 29.98 1015 9 14.48406 0.001 0.001
4:53 pm 16:53 Cloudy 70 21.1 64 17.8 82 82 ENE 5 7 29.96 1015 10 16.0934 N/A
5:53 pm 17:53 Mostly Cloudy 70 21.1 65 18.3 84 84 N N/A 29.96 1015 10 16.0934 N/A
6:53 pm 18:53 Cloudy 70 21.1 63 17.2 79 79 N N/A 29.95 1014 10 16.0934 N/A
7:53 pm 19:53 Cloudy 70 21.1 67 19.4 90 90 N N/A 29.96 1014 10 16.0934 N/A
8:53 pm 20:53 Cloudy 68 20 66 18.9 93 93 N N/A 29.97 1015 10 16.0934 N/A
9:53 pm 21:53 Mostly Cloudy 66 18.9 65 18.3 96 96 N N/A 29.99 1016 9 14.48406 N/A
10:53 pm 22:53 Cloudy 64 17.8 64 17.8 100 100 N N/A 29.99 1016 8 12.87472 N/A
11:53 pm 23:53 Mostly Cloudy 66 18.9 60 15.6 81 81 NNE 5 7 30 1016 10 16.0934 N/A

Powered by AerisWeather